Volver al catálogo

STARLINK-32175

ActivoComunicacionesVLEO
NORAD 60339·PAYLOAD·🇺🇸 United States

Lanzado Aug 2, 2024 desde Cape Canaveral Space Force Station

Loading…

Próximos Pases (próximas 24 horas)

TLE

ActualizadoSource: CelesTrak SupGP

Época: Sep 14, 2026, 21:15 UTC

1 60339C 24136L   26257.88590278  .00044526  00000+0  13160-2 0  2576
2 60339  53.1575 275.6758 0001215  82.3853  81.2231 15.34358410    19

Sigue STARLINK-32175 en tiempo real con AllMySat

Download on the App Store